CW1309 Weather Reports


time (UTC)temp
C
wind
direction
speed
KPH
gust
KPH
rain 1hr
cm
rain 24hr
cm
rain mn
cm
humidity
%
barometer
mb
20260502123005 11 5 6.4 19.3 0.00 1.42 0.00 96 1022.0
20260502121503 10 348 6.4 14.5 0.00 1.42 0.00 96 1021.7
20260502114626 10 350 6.4 12.9 0.00 2.11 0.00 96 1021.6
20260502113115 10 5 4.8 8.0 0.00 2.11 0.00 96 1021.6
20260502111605 11 349 1.6 4.8 0.00 2.11 0.00 95 1021.5
20260502110103 11 343 1.6 4.8 0.00 2.11 0.00 96 1021.3
20260502104552 11 5 6.4 12.9 0.00 3.30 0.00 96 1020.9
20260502103109 11 348 6.4 14.5 0.00 3.30 0.00 96 1020.6
20260502101553 11 342 8.0 16.1 0.00 3.30 0.00 96 1020.3
20260502070031 11 5 4.8 19.3 0.00 4.42 0.00 93 1019.2
20260502064535 11 24 8.0 16.1 0.00 5.36 0.00 93 1019.1
20260502063027 11 19 8.0 20.9 0.00 5.36 0.00 92 1018.8
20260502061525 11 360 11.3 22.5 0.00 5.36 0.00 92 1019.1
20260502060023 11 42 9.7 24.1 0.00 5.36 0.00 92 1019.2
20260502054522 12 5 6.4 25.7 0.03 5.36 0.00 92 1019.1
20260502053019 12 25 9.7 27.4 0.03 5.36 0.00 92 1019.0
20260502051519 12 47 12.9 27.4 0.03 5.36 0.00 93 1019.0
20260502050017 12 355 17.7 27.4 0.03 5.36 0.00 94 1018.8
20260502044512 12 43 14.5 27.4 0.00 5.33 5.33 94 1018.8
20260502043109 13 355 12.9 22.5 0.00 5.33 5.33 94 1018.7
20260502041509 13 5 11.3 25.7 0.00 5.33 5.33 95 1018.7
20260502040008 13 5 16.1 27.4 0.00 5.33 5.33 95 1018.5
20260502034504 13 360 14.5 27.4 0.00 5.33 5.33 96 1018.4
20260502033006 13 49 12.9 27.4 0.00 5.33 5.33 96 1018.1
20260502031559 13 30 11.3 24.1 0.00 5.33 5.33 97 1017.7
20260502030107 13 28 11.3 30.6 0.00 5.33 5.33 97 1017.7
20260502024556 13 331 12.9 27.4 0.00 5.33 5.33 97 1017.5
20260502023101 13 11 6.4 22.5 0.00 5.33 5.33 97 1017.5
20260502021556 13 28 17.7 29.0 0.00 5.33 5.33 96 1017.2
20260502020051 13 13 14.5 30.6 0.00 5.33 5.33 95 1016.8
20260502014548 13 5 12.9 29.0 0.00 5.33 5.33 95 1016.7
20260502013053 13 31 11.3 30.6 0.00 5.33 5.33 95 1016.4
20260502011547 13 360 12.9 25.7 0.00 5.33 5.33 95 1016.2
20260502004539 13 342 20.9 35.4 0.00 5.33 5.33 95 1015.3
20260502003037 13 29 19.3 35.4 0.00 5.33 5.33 95 1015.2
20260502001535 14 84 16.1 32.2 0.00 5.33 5.33 96 1015.0
20260502000032 14 355 16.1 27.4 0.00 5.33 5.33 97 1014.8
20260501234535 14 41 11.3 29.0 0.00 5.33 5.33 97 1015.1
20260501233033 14 85 11.3 30.6 0.00 5.33 5.33 98 1014.6
20260501231529 14 350 16.1 25.7 0.03 5.33 5.33 98 1014.7
20260501230031 14 355 16.1 32.2 0.03 5.33 5.33 98 1014.5
20260501224526 15 44 17.7 29.0 0.03 5.33 5.33 98 1014.1
20260501223034 15 5 14.5 35.4 0.03 5.33 5.33 98 1013.9
20260501221524 15 335 16.1 33.8 0.05 5.31 5.31 98 1013.6
20260501220020 15 22 24.1 37.0 0.05 5.31 5.31 98 1013.6
20260501214527 15 9 14.5 30.6 0.05 5.31 5.31 98 1013.3
20260501213016 15 334 14.5 30.6 0.05 5.31 5.31 98 1013.3
20260501211517 16 326 12.9 32.2 0.00 5.23 5.23 97 1013.0
20260501210017 16 321 12.9 25.7 0.00 5.23 5.23 97 1012.1
20260501204515 16 40 12.9 25.7 0.00 5.23 5.23 97 1011.1
20260501203024 16 42 9.7 35.4 0.00 5.23 5.23 98 1011.2
20260501201513 16 64 14.5 32.2 0.03 5.23 5.23 99 1011.3
20260501200012 16 360 16.1 33.8 0.03 5.23 5.23 100 1011.8
20260501194512 16 355 17.7 35.4 0.15 5.23 5.23 100 1012.2
20260501193010 15 346 14.5 25.7 0.38 5.23 5.23 100 1012.9
20260501191510 15 348 17.7 32.2 0.38 5.23 5.23 100 1012.7
20260501190010 15 339 17.7 25.7 0.41 5.23 5.23 100 1012.8
20260501184508 15 326 12.9 32.2 0.28 5.08 5.08 100 1012.8
20260501183006 15 308 17.7 46.7 0.08 4.88 4.88 100 1013.0
20260501181503 16 306 19.3 37.0 0.05 4.85 4.85 100 1012.1
20260501180002 16 328 14.5 33.8 0.03 4.83 4.83 100 1011.4
20260501173101 17 53 9.7 29.0 0.00 4.80 4.80 100 1011.3
20260501171614 17 22 11.3 19.3 0.00 4.80 4.80 100 1011.8
20260501170119 17 11 12.9 25.7 0.03 4.80 4.80 100 1011.5
20260501164600 17 51 11.3 25.7 0.15 4.80 4.80 100 1011.5
20260501163054 16 75 11.3 24.1 0.23 4.80 4.80 100 1011.9
20260501161553 16 69 14.5 24.1 0.30 4.80 4.80 100 1011.9
20260501160051 15 59 19.3 29.0 0.30 4.78 4.78 100 1011.1
20260501154550 16 15 6.4 17.7 0.18 4.65 4.65 100 1014.9
20260501153103 16 18 8.0 27.4 0.08 4.55 4.55 100 1013.9
20260501151606 15 321 8.0 20.9 0.03 4.50 4.50 100 1013.8